TimePDT,TemperatureF,Dew PointF,Humidity,Sea Level PressureIn,VisibilityMPH,Wind Direction,Wind SpeedMPH,Gust SpeedMPH,PrecipitationIn,Events,Conditions,WindDirDegrees,DateUTC
12:52 AM,26.1,18.0,71,30.33,10.0,NNE,4.6,-,N/A,,Clear,30,2013-03-24 07:52:00
1:52 AM,26.1,18.0,71,30.34,10.0,NNE,5.8,-,N/A,,Clear,20,2013-03-24 08:52:00
2:52 AM,25.0,17.1,72,30.34,10.0,NNE,5.8,-,N/A,,Clear,20,2013-03-24 09:52:00
3:52 AM,23.0,16.0,74,30.35,10.0,North,6.9,-,N/A,,Clear,360,2013-03-24 10:52:00
4:52 AM,24.1,18.0,77,30.35,10.0,North,6.9,-,N/A,,Clear,10,2013-03-24 11:52:00
5:52 AM,23.0,17.1,78,30.36,10.0,North,6.9,-,N/A,,Clear,360,2013-03-24 12:52:00
6:52 AM,23.0,18.0,81,30.37,10.0,NNE,6.9,-,N/A,,Clear,20,2013-03-24 13:52:00
7:52 AM,28.0,21.0,75,30.37,10.0,North,8.1,-,N/A,,Clear,10,2013-03-24 14:52:00
8:52 AM,33.1,24.1,70,30.38,10.0,North,6.9,-,N/A,,Clear,10,2013-03-24 15:52:00
9:52 AM,39.2,26.6,61,30.34,10.0,North,4.6,-,N/A,,Clear,360,2013-03-24 16:52:00
10:52 AM,45.0,27.0,49,30.35,10.0,Variable,4.6,-,N/A,,Clear,0,2013-03-24 17:52:00
11:52 AM,46.9,23.0,39,30.35,10.0,Variable,3.5,-,N/A,,Mostly Cloudy,0,2013-03-24 18:52:00
12:52 PM,51.1,17.1,26,30.32,10.0,ESE,8.1,-,N/A,,Clear,120,2013-03-24 19:52:00
1:52 PM,51.1,16.0,25,30.30,10.0,Variable,4.6,-,N/A,,Clear,0,2013-03-24 20:52:00
2:52 PM,51.1,15.1,24,30.28,10.0,ESE,5.8,-,N/A,,Clear,120,2013-03-24 21:52:00
3:52 PM,52.0,14.0,22,30.26,10.0,Variable,5.8,-,N/A,,Clear,0,2013-03-24 22:52:00
4:52 PM,52.0,15.1,23,30.24,10.0,East,5.8,-,N/A,,Clear,90,2013-03-24 23:52:00
5:52 PM,51.1,14.0,23,30.22,10.0,East,4.6,-,N/A,,Clear,100,2013-03-25 00:52:00
6:52 PM,48.9,15.1,26,30.22,10.0,East,6.9,-,N/A,,Clear,100,2013-03-25 01:52:00
7:52 PM,44.1,16.0,32,30.21,10.0,East,3.5,-,N/A,,Clear,90,2013-03-25 02:52:00
8:52 PM,39.0,18.0,43,30.21,10.0,ENE,6.9,-,N/A,,Clear,70,2013-03-25 03:52:00
9:52 PM,36.0,18.0,48,30.20,10.0,ENE,6.9,-,N/A,,Clear,70,2013-03-25 04:52:00
10:52 PM,32.0,19.0,59,30.21,10.0,North,3.5,-,N/A,,Clear,10,2013-03-25 05:52:00
11:52 PM,28.9,19.0,67,30.21,10.0,North,4.6,-,N/A,,Clear,10,2013-03-25 06:52:00